Погода Ртищево

Погода Ртищево : погода сейчас, прогноз погоды и архив. Всё, что Вы хотите узнать о погоде Ртищево!

Хотите узнать прогноз погоды Ртищево? Тогда Вам сюда: Погода Ртищево

Поиск расширенной информации на нашем сайте:

Полезная информация: Мебель фабрики свобода в москве свобода мебель москва.

Другие новости

Новости СМИ2

Главная страница сайта

Новости сайта

02.10.2013

Напоминаем, что на нашем новом сайте вы можете получить высокодетализированные прогнозы погоды по пунктам России, СНГ и мира (включающие важные для авиации метеовеличины, такие как направление и скорость ветра, видимость, явления погоды, количество и форма облачности, нижняя и верхняя граница облачности), а также ознакомиться с разнообразными материалами по авиационной метеорологии и подборкой полезных ссылок на эту тему.

Сайт Метеоцентр.Азия посвящён разработке технологий оптимизации авиаметеорологического обслуживания, включая проектирование и перспективное создание нескольких автоматизированных авиаметеорологических систем:
- система выпуска высокодетальных прогностических карт явлений погоды для нижнего воздушного пространства по России и ближнему зарубежью;
- система верификации прогнозов TAF (выпускаемых синоптиками официальных АМСГ РФ и ближнего зарубежья) и AUTOTAF (выпускаемых сайтом Метеоцентр.Азия) - выявление ошибок, онлайн-сопоставление с фактической погодой METAR, автоматическое внесение коррективов в прогнозы при резком отклонении фактической погоды от прогноза, подсчёт оправдываемости прогнозов по элементам и в целом;
- система обработки, анализа и отображения авиаметеорологической информации для применения провайдерами метеорологической информации.

Рекомендуем: Кадров смотреть онлайн бесплатно новые серии.

Погода Ртищево - сегодня

Время (UTC), дата Ветер
(°,м/с) 
Видим.   Явления Облачность Т
(°С)
Тd
(°С)
f(%) Тe
(°С)
Pmin
(гПа)
dP
(гПа)
Po
(мм)
O2
(г/м3)
Тmin Tmax R s Состояние
почвы
12 26.04.17 220 (ЮЗ) 5-10{11}  10 км    6/6 600 м 
[Cu hum]
+15.2 +0.9 38 +15  1024.4  -0.5  750  286           
15 26.04.17 210 (ЮЗ) 6-10{12}  10 км    1/1 600 м 
[Cu hum]
+14.8 -0.2 36 +14  1023.3  -1.1  749  286    +15.6       
18 26.04.17 190 (Ю) 4{10}  4000 м    ясно 
+10.1 +2 57 +9  1024.5  -1.1  749  291           
21 26.04.17 190 (Ю) 4000 м    ясно 
+8.4 +2 64 +7  1025.3  0.6  750  293           
00 27.04.17 190 (Ю) 4000 м    ясно 
+6.8 +1.7 70 +5  1025.9  0.5  750  295           
03 27.04.17 200 (Ю) 10 км    10/0 верхняя 
[Ci]
+5.9 +1.6 74 +4  1026.7  0.6  751  296  +5.8        влажная 
06 27.04.17 200 (Ю) 6-11{11}  10 км    9/0 верхняя 
[Ci fib]
+12.4 +2.4 50 +11  1026.4  0.3  751  289           
09 27.04.17 210 (ЮЗ) 8-13{15}  10 км    9/0 верхняя 
[Ci fib]
+16.6 +0.3 33 +16  1025.6  -0.5  750  285           
12 27.04.17 200 (Ю) 7-12{15}  10 км    9/0 верхняя 
[Ci fib]
+18.2 -1.7 26 +18  1024.4  -0.8  750  283           
15 27.04.17 200 (Ю) 7-10{15}  10 км    4/0 средняя, верхняя 
[Ac trans|Ci fib]
+17.3 -4 23 +17  1023.3  -1.2  749  284    +18.8       
18 27.04.17 190 (Ю) 4{11}  4000 м    4/0 верхняя 
[Ci fib]
+12.2 -1.6 38 +12  1024.4  0.7  749  289           
21 27.04.17 190 (Ю) 4000 м    ясно 
+9.7 +0 51 +9  1025.4  0.8  750  292           
00 28.04.17 190 (Ю) 4000 м    ясно 
+8.5 +0.5 57 +7  1025.6  750  293           
03 28.04.17 190 (Ю) 10 км    6/0 верхняя 
[Ci fib]
+7.5 +0.7 62 +6  1026.5  0.8  751  294  +6.9        сухая 
06 28.04.17 200 (Ю) 5{10}  10 км    3/0 верхняя 
[Ci fib]
+14 +2 44 +13  1025.9  751  287           
09 28.04.17 210 (ЮЗ) 7-13{13}  10 км    3/0 верхняя 
[Ci fib]
+19.3 +2.7 33 +19  1024.5  -0.9  750  282           
12 28.04.17 200 (Ю) 7-13{13}  10 км    5/0 верхняя 
[Ci fib]
+21.9 +1 25 +22  1023.4  -0.9  749  279           
15 28.04.17 190 (Ю) 4{13}  10 км    6/0 верхняя 
[Ci fib]
+20.3 -0 26 +20  1022.8  -0.7  749  281    +22.3       
18 28.04.17 170 (Ю) 4000 м    1/0 верхняя 
[Ci fib]
+13.9 +1.9 44 +14  1024.3  0.9  749  287           
21 28.04.17 160 (Ю) 4000 м    ясно 
+10.2 +1.9 56 +10  1024.9  0.6  750  291           
00 29.04.17 150 (ЮВ) 4000 м    ясно 
+6.9 +0.7 65 +7  1025.5  0.3  750  295           
03 29.04.17 130 (ЮВ) 10 км    8/0 средняя 
[Ac As]
+7.4 +0.7 62 +7  1025.5  750  294  +5.9        сухая 
06 29.04.17 150 (ЮВ) 6-11{11}  10 км    3/0 средняя 
[Ac trans]
+17 -0.9 30 +17  1024  -0.6  749  284           
09 29.04.17 170 (Ю) 7-14{14}  10 км    8/0 средняя 
[Ac trans]
+21.1 -1.6 22 +21  1022.4  -1.2  748  280           
12 29.04.17 160 (Ю) 7-14{15}  10 км    1/0 верхняя 
[Ci fib]
+23.1 -0.7 21 +23  1021.1  -1.1  748  278           
Время (UTC), дата Ветер
(°,м/с) 
Видим.   Явления Облачность Т
(°С)
Тd
(°С)
f(%) Тe
(°С)
Pmin
(гПа)
dP
(гПа)
Po
(мм)
O2
(г/м3)
Тmin Tmax R s Состояние
почвы

Для получения пояснительной информации подведите курсор к названию столбца.

ПОГОДА Ртищево - архив

Всё, что Вы хотите узнать о погоде Ртищево - удобно и подробно!

Выберите нужную дату (начиная с 1 января 2015* года) и нажмите кнопку "Найти".
Будут отображены архивные сводки погоды по пункту Ртищево, начиная с указанной даты.


Отображать данные в формате CSV (для использования в таблицах Excel)


Внимание! Наш архив погоды предназначен исключительно для личного некоммерческого использования в познавательных целях. Если Вам необходимы официальные справки о состоянии погоды (для производственных, юридических, коммерческих и т.п. целей), обращайтесь в органы Росгидромета.

*Примечание: данная дата относится к архиву по метеостанциям СССР (Россия, СНГ, Балтия).
Архив по метеостанциям Зарубежной Европы и Азии (кроме Китая) хранится 10 дней, по другим регионам земного шара (Китай, Африка, Америка, Австралия, Океания) - 1 день.

Ртищево - район местоположения метеостанции


Название, широта, долгота, высота метеостанции:
Ртищево 52.2°ш. 43.8°д. 213 м над ур. моря [Российская Федерация]

Дополнительная информация

В oтличие oт бoльшинства пoгoдных сайтoв мы публикуем пoдрoбную метеoинфoрмацию в детальнoм прoфессиoнальнoм фoрмате.

Характеристики температуры и влажнoсти вoздуха измеряются на высoте 2 м в тени вдали oт зданий и деревьев.
Скoрoсть ветра измеряется на высoте 10 м (на урoвне рoста челoвека скoрoсть ветра ниже в 1.5-2 раза). Если метеoстанция нахoдится в гoрoде или в лесу, тo скoрoсть ветра занижена на 2-4 м/с пo сравнению с oткрытым местoм. Скoрoсть ветра над акватoриями крупных рек и oзёр, а также на вершинах хoлмoв на 2-5 м/с выше, чем в oбычных услoвиях.
Атмoсфернoе давление в разных тoчках местнoсти мoжет значительнo oтличаться oт давления на метеoстанции, в зависимoсти oт услoвий рельефа (при пoдъёме на 10 м давление пoнижается примернo на 1 мм рт.ст.).